Regional Weather Roundup
Issued by NWS Upton, NY

Current Version | Previous Version | Graphics & Text | Print | Product List | Glossary Off
Versions: 1 2 3 4 5 6 7 8 9 10 11 12 13 14 15 16 17 18 19 20 21 22 23 24 25 26 27
000 ASUS41 KOKX 282008 RWROKX REGIONAL WEATHER ROUNDUP NATIONAL WEATHER SERVICE NEW YORK NY 400 PM EDT TUE MAR 28 2017 NOTE: "FAIR" INDICATES FEW OR NO CLOUDS BELOW 12,000 FEET WITH NO SIGNIFICANT WEATHER AND/OR OBSTRUCTIONS TO VISIBILITY. NYZ071-072-176-178-NJZ106-104-282100- NEW YORK CITY METRO AREA CITY SKY/WX TMP DP RH WIND PRES REMARKS Central Park CLOUDY 43 41 93 E10 29.89F Wall St Helipt CLOUDY 43 41 93 NE14 29.89R LaGuardia APRT CLOUDY 42 39 89 NE18 29.87F FOG Kennedy INTL CLOUDY 48 46 93 NE10 29.88F Breezy Point N/A 43 N/A N/A NE6 N/A Newark/Liberty CLOUDY 45 44 97 NE8 29.87F Teterboro CLOUDY 45 43 93 NE5 29.86F FOG $$ NYZ177-179-078>081-282100- LONG ISLAND NEW YORK CITY SKY/WX TMP DP RH WIND PRES REMARKS Jones Beach N/A 43 N/A N/A E12 N/A Matinecock PT NOT AVBL Farmingdale LGT RAIN 47 45 93 E12 29.87F MacArthur/ISP LGT RAIN 44 44 100 E8 29.87F Shirley LGT RAIN 43 43 100 VRB5 29.90F Westhampton CLOUDY 44 42 93 NE6 29.93F East Hampton DRIZZLE 41 39 95 E7 29.92F Montauk NOT AVBL $$ NYZ052-065-067-282100- HUDSON VALLEY CITY SKY/WX TMP DP RH WIND PRES REMARKS White Plains LGT RAIN 43 41 93 E12 29.85F FOG Newburgh LGT RAIN 45 45 100 E8 29.90F FOG Montgomery LGT RAIN 46 44 93 NE8 29.87F Poughkeepsie LGT RAIN 44 43 96 NE7 29.89F FOG Albany LGT RAIN 48 44 86 S8 29.91S FOG $$ NJZ001-105-106-008-010-013-015-019>022-104-282100- NEW JERSEY CITY SKY/WX TMP DP RH WIND PRES REMARKS Newark/Liberty CLOUDY 45 44 97 NE8 29.87F Teterboro CLOUDY 45 43 93 NE5 29.86F FOG Caldwell CLOUDY 46 44 93 E10 29.87F Somerville CLOUDY 48 45 89 VRB6 29.85R Linden CLOUDY 47 45 91 CALM 29.88R Sussex LGT RAIN 48 47 96 N9 29.86S Andover N/A 47 45 93 VRB5 29.85S Trenton CLOUDY 49 46 90 E5 29.86R Millville CLOUDY 59 59 100 E6 29.82F Atlantic City CLOUDY 51 48 89 SE7 29.84F Wrightstown CLOUDY 53 52 97 E6 29.82F Toms River CLOUDY 49 48 97 NE6 29.86R Belmar CLOUDY 44 43 96 NE9 29.88R $$ PAZ047>061-062-071-282100- EASTERN PENNSYLVANIA CITY SKY/WX TMP DP RH WIND PRES REMARKS Philadelphia CLOUDY 54 50 86 NE8 29.84F Allentown LGT RAIN 51 47 86 E3 29.86R Scranton CLOUDY 52 50 93 VRB3 29.83S $$ CTZ002-004>006-009-010-012-RIZ004-006-007-MAZ004-011-015-282100- SOUTHERN NEW ENGLAND IN CT CITY SKY/WX TMP DP RH WIND PRES REMARKS Bradley INTL LGT RAIN 43 42 97 N5 29.94F FOG Hartford LGT RAIN 45 43 93 CALM 29.94S FOG Danbury LGT RAIN 43 42 97 E9 29.90F FOG Wtrbury/Oxford CLOUDY 43 37 81 CALM 29.93F FOG Bridgeport LGT RAIN 42 39 89 NE13 29.92F Meriden LGT RAIN 45 42 89 N3 29.93F New Haven LGT RAIN 43 42 97 NE3 29.92F Chester NOT AVBL Groton LGT RAIN 43 41 93 E6 29.93F Wilimantic LGT RAIN 46 43 89 E6 29.94F FOG IN RI CITY SKY/WX TMP DP RH WIND PRES REMARKS Providence LGT RAIN 44 40 85 E5 29.96F FOG Block Island LGT RAIN 39 39 100 E12 29.93F WCI 32 Westerly LGT RAIN 43 42 97 NE9 29.94F FOG IN MA CITY SKY/WX TMP DP RH WIND PRES REMARKS Boston LGT RAIN 39 38 96 E8 30.00S FOG WCI 33 Worcester LGT RAIN 37 36 96 NE5 29.94F VSB<1/4 WCI 33 Westfield LGT RAIN 42 42 100 N6 29.94F FOG Provincetown LGT RAIN 41 38 89 E3 30.01R Nantucket CLOUDY 43 37 79 E6 29.98S $$ ANZ330-335-338-340-345-350-353-355-282100- COASTAL MARINE OBSERVATIONS STATION/POSITION TIME SKY/WX TEMP WIND PRES VSBY WAVE AIR SEA DIR/SP/G HT/PER (UTC) (F) (DEG/KT/KT) (MB) (MI) (FT/S) NY HARB ENTRANCE NOT AVBL 20 S FIRE ISLAND NOT AVBL GREAT SOUTH BAY NOT AVBL 23 SSW MONTAUK P NOT AVBL 15 E BARNEGAT LI NOT AVBL HUDSON CANYON NOT AVBL KINGS POINT 1948 40 39 1011.3 EXECUTION ROCKS NOT AVBL CENTRAL LI SOUND NOT AVBL EASTERN LI SOUND NOT AVBL ROBBINS REEF 1948 43 50/ 9/ 10 1011.9 $$ >>>>>>>>>>>>>>>>>>>>>>>>>>>> KEY <<<<<<<<<<<<<<<<<<<<<<<<<<< > < > SKY/WX - Sky Condition/Present Weather < > TMP - Temperature in Fahrenheit < > DP - Dew Point in Fahrenheit < > RH - Relative Humidity in Percent < > WIND - Direction (from) and Speed in MPH < > PRES - Mean Sea Level Pressure (inches of Hg) < > WCI - Wind Chill Index < > VSB - VISIBILITY IN MILES < > HX - HEAT INDEX < > TC - TEMPERATURE IN CELSIUS < > VRB - VARIABLE WIND DIRECTION < > < >>>>>>>>>>>>>>>>>>>>>>>>>>>> KEY <<<<<<<<<<<<<<<<<<<<<<<<<<<

USA.gov is the U.S. government's official web portal to all federal, state and local government web resources and services.